AirNav   Pilot Hours Calculator
 
 1376 users online  

M50 Boardman Airport
Boardman, Oregon, USA

GOING TO BOARDMAN?


FAA INFORMATION EFFECTIVE 25 MARCH 2021

Location

FAA Identifier: M50
Lat/Long: 45-48-53.3700N 119-49-13.8020W
45-48.889500N 119-49.230033W
45.8148250,-119.8205006
(estimated)
Elevation: 395.5 ft. / 120.5 m (surveyed)
Variation: 19E (1985)
From city: 4 miles SW of BOARDMAN, OR
Time zone: UTC -7 (UTC -8 during Standard Time)
Zip code: 97818

Airport Operations

Airport use: Open to the public
Activation date: 12/1943
Control tower: no
ARTCC: SEATTLE CENTER
FSS: MC MINNVILLE FLIGHT SERVICE STATION
NOTAMs facility: MMV (NOTAM-D service available)
Attendance: UNATNDD
Wind indicator: lighted
Segmented circle: yes
MARKED WITH WHITE TIRES.
Lights: ACTVT MIRL RY 04/22 - 122.900.
Beacon: white-green (lighted land airport)
Operates sunset to sunrise.

Airport Communications

CTAF: 122.9

Nearby radio navigation aids

VOR radial/distance  VOR name  Freq  Var
PDTr267/37.6PENDLETON VORTAC114.7014E

Airport Services

Parking: tiedowns
Airframe service: NONE
Powerplant service: NONE

Runway Information

Runway 4/22

Dimensions: 4200 x 100 ft. / 1280 x 30 m
Surface: asphalt, in good condition
Weight bearing capacity: 
Single wheel: 30.0
Runway edge lights: medium intensity
Runway edge markings: RWY CNTRLN IN POOR COND DUE TO FADING.
RUNWAY 4  RUNWAY 22
Latitude: 45-48.728717N45-49.050250N
Longitude: 119-49.667383W119-48.792633W
Elevation: 395.5 ft.366.3 ft.
Traffic pattern: leftright
Runway heading: 043 magnetic, 062 true223 magnetic, 242 true
Markings: basic, in good conditionbasic, in good condition
Touchdown point: yes, no lightsyes, no lights

Airport Ownership and Management from official FAA records

Ownership: Publicly-owned
Owner: PORT OF MORROW
P.O. BOX 200
BOARDMAN, OR 97818
Phone 541-481-7678
Manager: LISA MITTELSDORF
PORT OF MORROW BOX 200
BOARDMAN, OR 97818
Phone 541-481-7678

Airport Operational Statistics

Aircraft operations: avg 29/week *
80% transient general aviation
17% local general aviation
3% air taxi
* for 12-month period ending 28 January 2019

Additional Remarks

TELEPHONE AVBL.
TRIPLE PLINE RUNS EAST-WEST 3000 FT N OF ARPT.
TAXIWAY EDGE MARKED WITH BLUE REFLECTORS.
FOR CD CTC SEATTLE ARTCC AT 253-351-3694.

Instrument Procedures

There are no published instrument procedures at M50.

Some nearby airports with instrument procedures:

9S9 - Lexington Airport (22 nm S)
KHRI - Hermiston Municipal Airport (23 nm E)
KRLD - Richland Airport (36 nm NE)
KPSC - Tri-Cities Airport (40 nm NE)
KPDT - Eastern Oregon Regional Airport at Pendleton (42 nm E)
 
Loc | Ops | Rwys | IFR | FBO | Links
Com | Nav | Svcs | Stats | Notes
Area around M50 (Boardman Airport)
 
Road maps at: MapQuest Bing Google
 
Aerial photo
WARNING: Photo may not be current or correct
Aerial photo of M50 (Boardman Airport)
Do you have a better or more recent aerial photo of Boardman Airport that you would like to share? If so, please send us your photo.

 
Sectional chart

 
Airport distance calculator
Flying to Boardman Airport? Find the distance to fly.

From to M50

Sunrise and sunset
Times for 14-Apr-2021
 Local
(UTC-7)
 Zulu
(UTC)
Morning civil twilight05:4512:45
Sunrise06:1613:16
Sunset19:4302:43
Evening civil twilight20:1403:14

Current date and time
Zulu (UTC)  14-Apr-2021 14:04:40
Local (UTC-7)  14-Apr-2021 07:04:40
 
METAR
KHRI 
23nm E 
141353Z AUTO 01007KT 10SM CLR 06/M06 A3015 RMK AO2 SLP211 T00611061
K1S5 
31nm N 
141355Z AUTO 36003KT 10SM CLR 08/M08 A3022 RMK AO2 T00751085
KRLD 
36nm NE 
141355Z AUTO 03012G16KT 10SM CLR 08/M07 A3020 RMK AO2 T00801075
KPSC 
40nm NE 
141353Z 01014KT 10SM CLR 06/M06 A3019 RMK AO2 SLP222 T00561061
KPDT 
42nm E 
141353Z 11006KT 10SM CLR M02/M07 A3011 RMK AO2 SLP196 T10221072
TAF
KPSC 
40nm NE 
141120Z 1412/1512 01015KT P6SM SCT200 FM142200 36015G25KT P6SM FEW080 FM150600 36012KT P6SM SKC
KPDT 
42nm E 
141120Z 1412/1512 09005KT P6SM SCT180 FM141500 31007KT P6SM SCT150 FM141800 36014G20KT P6SM SCT150 FM150200 06007KT P6SM SCT080 SCT250 FM150800 14007KT P6SM SKC
NOTAMs
Click for the latest NOTAMs
NOTAMs are issued by the DoD/FAA and will open in a separate window not controlled by AirNav.

 

 
 

Would you like to see your business listed on this page?

 If your business provides an interesting product or service to pilots, flight crews, aircraft, or users of the Boardman Airport, you should consider listing it here.  To start the listing process, click on the button below
 
Add a business
 

Other Pages about Boardman Airport

Update a link
 
Copyright © AirNav, LLC. All rights reserved. Privacy Policy  Contact